Flag for Germany Weather past 2 weeks in Idar-Oberstein, Rhineland-Palatinate, Germany

Now
55 °F

Clear.


Feels Like: 54 °F
Forecast: 46 / 68 °F
Wind: 7 mph from Northeast

Location: Hahn

Current Time: May 23, 2015 at 12:48:55 AM

Latest Report: May 23, 2015 at 12:20 AM


Visibility: 10 mi

Pressure: 30.21 "Hg

Humidity: 55%

Dew point: 39 °F

Location of Idar-ObersteinLocation

Historic Weather in Idar-Oberstein — Graph

°F

Idar-Oberstein temperature yesterday

Maximum temperature yesterday: 64 °F (at 4:20 PM)
Minimum temperature yesterday: 45 °F (at 5:50 AM)
Average temperature yesterday: 56 °F

Past Weeks' High & Low Weather Summary

 TemperatureHumidityPressure
High75 °F (May 11, 4:50 PM)100% (May 9, 9:50 PM)30.36 "Hg (May 9, 9:50 PM)
Low37 °F (May 21, 6:20 AM)33% (May 11, 6:50 PM)29.71 "Hg (May 18, 7:50 PM)
Average54 °F68%30.08 "Hg
* Reported May 7 11:20 PM — May 22 11:20 PM, Idar-Oberstein, Weather by CustomWeather, © 2015

Note: Actual official high and low records may vary slightly from our data, if they occured in-between our weather recording intervals... More about our weather records

Advertising

Idar-Oberstein weather history for previous 24 hours

 ConditionsComfort  
Time TempWeatherWind HumidityBarometerVisibility
11:20 PM
Fri, May 22
55 °FClear.8 mph59%30.21 "Hg10 mi
10:50 PM55 °FClear.8 mph55%30.21 "Hg10 mi
10:20 PM55 °FClear.5 mph59%30.21 "Hg10 mi
9:50 PM57 °FPassing clouds.3 mph51%30.21 "HgN/A
9:20 PM57 °FSunny.1 mph55%30.21 "Hg10 mi
8:50 PM59 °FSunny.1 mph51%30.18 "Hg10 mi
8:20 PM59 °FPassing clouds.3 mph51%30.18 "HgN/A
7:50 PM61 °FPassing clouds.3 mph45%30.18 "HgN/A
7:20 PM61 °FSunny.5 mph45%30.18 "Hg10 mi
6:50 PM59 °FPassing clouds.5 mph51%30.18 "HgN/A
6:20 PM61 °FPassing clouds.6 mph45%30.21 "HgN/A
5:50 PM63 °FPassing clouds.6 mph42%30.21 "HgN/A
5:20 PM63 °FSunny.5 mph39%30.21 "Hg10 mi
4:50 PM63 °FPassing clouds.8 mph39%30.21 "HgN/A
4:20 PM64 °FSunny.5 mph37%30.24 "Hg10 mi
3:50 PM63 °FSunny.3 mph42%30.24 "Hg10 mi
3:20 PM63 °FPassing clouds.6 mph39%30.24 "HgN/A
2:50 PM61 °FSunny.3 mph42%30.24 "Hg10 mi
2:20 PM59 °FPassing clouds.6 mph45%30.27 "HgN/A
1:50 PM61 °FSunny.5 mph42%30.27 "Hg10 mi
1:20 PM59 °FPassing clouds.7 mph48%30.27 "HgN/A
12:50 PM61 °FPassing clouds.6 mph48%30.30 "HgN/A
12:20 PM59 °FPassing clouds.3 mph48%30.30 "HgN/A
11:50 AM59 °FPassing clouds.5 mph51%30.30 "HgN/A
11:20 AM59 °FPassing clouds.2 mph51%30.30 "HgN/A
10:50 AM57 °FPassing clouds.2 mph55%30.30 "HgN/A
10:20 AM57 °FPassing clouds.2 mph55%30.30 "HgN/A
9:50 AM55 °FSunny.2 mph59%30.33 "Hg10 mi
9:20 AM55 °FPassing clouds.5 mph59%30.33 "HgN/A
8:50 AM54 °FPassing clouds.3 mph63%30.33 "HgN/A
8:20 AM52 °FSunny.2 mph67%30.33 "Hg10 mi
7:50 AM52 °FSunny.1 mph67%30.30 "Hg10 mi
7:20 AM50 °FSunny.2 mph71%30.30 "Hg10 mi
6:50 AM48 °FSunny.2 mph82%30.30 "Hg10 mi
6:20 AM45 °FClear.3 mph81%30.30 "Hg10 mi
5:50 AM45 °FClear.2 mph81%30.30 "Hg10 mi
5:20 AM46 °FClear.3 mph76%30.30 "Hg10 mi
4:50 AM48 °FClear.6 mph76%30.33 "Hg10 mi
3:50 AM48 °FClear.5 mph71%30.33 "Hg10 mi
3:20 AM48 °FClear.6 mph71%30.33 "Hg10 mi
2:50 AM50 °FClear.6 mph67%30.33 "Hg10 mi
2:20 AM50 °FClear.3 mph67%30.33 "Hg10 mi
1:20 AM50 °FClear.2 mph62%30.33 "Hg10 mi
12:50 AM48 °FClear.2 mph66%30.33 "Hg10 mi
12:20 AM48 °FClear.5 mph66%30.33 "Hg10 mi
Weather by CustomWeather, © 2015

See weather overviewHow to use our weather pages